Dewpoint
50 46 39 39 27 19 15 15 16 30 35 42 45 36 35 43 47 46 60 60 59 56 56 65 69 70 70 69 68 68 67 67 67 67 67 68 68 67 65 64 63 62 60 59 58 56 58 59 60
46 45 39 36 18 14 14 15 13 28 37 42 44 41 37 52 54 57 57 59 60 60 55 53 67 68 69 69 68 67 67 67 67 67 67 68 67 66 65 64 63 63 61 59 57 56 59 59 59
45 44 36 23 19 16 13 14 12 20 39 38 37 46 53 53 54 55 64 62 60 58 65 66 68 68 69 68 67 67 67 66 66 66 67 68 67 65 64 63 63 62 60 58 56 56 58 57 56
37 30 26 16 15 17 17 15 12 18 38 45 46 46 51 51 62 64 66 66 62 62 67 67 67 68 68 68 67 67 66 66 66 66 67 68 67 65 64 63 63 62 58 56 55 55 54 53 52
38 30 18 16 16 15 13 13 33 38 43 46 46 48 47 59 61 64 65 66 65 67 68 68 68 68 68 67 67 66 66 66 66 66 67 68 67 65 64 63 62 60 58 56 54 52 51 51 49
32 23 18 15 13 13 16 24 37 42 43 46 45 47 49 59 60 62 64 66 66 65 64 65 67 67 67 67 66 66 66 67 67 67 67 67 67 65 64 63 61 60 59 56 54 53 51 47 46
23 19 16 13 11 12 21 26 40 42 39 44 47 44 47 49 60 62 63 65 64 62 63 63 61 62 62 65 65 65 66 66 66 67 67 67 66 64 63 62 61 60 58 55 53 51 47 45 44
21 18 12 12 10 13 22 25 38 37 41 49 48 45 43 54 60 61 63 63 63 62 62 62 62 61 60 60 61 60 63 64 65 66 66 65 64 63 62 61 60 58 56 54 51 46 41 40 36
22 15 12 13 13 14 19 20 33 47 50 51 52 56 56 59 60 60 60 61 61 61 62 61 61 60 59 60 60 60 61 63 63 63 62 62 62 60 60 60 59 58 55 53 48 43 40 37 36
18 14 13 14 12 12 14 17 25 47 45 46 50 54 59 59 59 58 57 57 58 59 60 61 60 58 58 58 59 60 61 59 58 57 58 58 59 59 60 60 59 56 54 51 49 43 41 41 40
19 12 13 11 12 15 16 36 43 42 40 43 46 55 57 57 57 57 56 56 55 57 60 60 59 58 57 57 56 55 56 58 56 55 57 57 59 58 57 56 55 54 50 48 47 45 44 44 40
18 15 15 14 27 26 17 44 46 45 45 50 51 56 56 55 55 55 54 54 54 55 57 58 57 56 53 55 54 57 57 57 57 56 57 56 55 54 53 52 50 46 45 44 47 48 44 41 39
18 18 17 23 27 29 34 40 43 45 45 47 52 54 55 54 54 54 54 54 54 55 55 56 57 57 57 56 57 57 56 56 57 57 57 56 54 52 53 51 49 47 48 45 49 46 44 41 40
19 21 18 24 28 30 33 38 39 44 48 48 53 54 54 53 52 53 53 53 53 54 54 55 55 55 55 55 56 56 55 55 55 56 56 57 55 53 52 51 48 49 50 50 48 46 45 43 38
25 22 21 24 27 26 34 35 35 43 46 50 50 51 52 52 51 51 53 53 53 54 54 54 54 54 54 53 53 53 52 52 53 56 55 56 56 54 53 52 52 52 52 50 48 47 47 43 40
24 21 18 20 29 30 32 27 38 44 45 45 49 51 52 51 51 51 52 52 53 54 53 54 54 53 52 53 53 52 49 48 49 53 55 54 55 56 54 55 54 54 53 50 50 48 47 44 42
23 19 17 22 31 31 33 30 41 44 45 41 43 48 51 51 51 51 51 52 52 53 54 54 54 53 52 52 52 51 48 51 46 54 55 54 55 56 55 54 54 53 52 51 50 48 47 47 45
20 19 17 23 30 32 33 32 37 42 44 44 46 47 49 51 50 51 51 51 51 51 53 53 53 52 52 51 50 50 52 54 53 53 54 55 55 57 55 55 55 54 52 51 50 49 48 49 45
22 19 18 22 29 31 31 31 37 41 45 44 46 45 50 50 51 51 51 50 51 50 52 52 52 51 51 50 49 48 50 53 53 54 53 57 57 56 56 56 56 55 52 52 49 48 47 47 46
22 20 16 20 27 26 25 25 35 43 44 42 44 48 50 49 51 51 51 50 50 50 51 52 51 51 50 50 49 49 51 53 54 54 53 57 58 58 57 56 57 57 55 51 50 49 48 47 47
21 19 18 18 24 24 25 22 34 40 38 40 42 44 47 47 49 51 50 50 50 51 51 51 51 51 49 49 49 52 53 53 53 53 52 57 58 59 59 59 58 58 56 53 51 50 48 46 47
19 21 22 21 21 19 22 18 22 32 35 37 42 44 46 48 48 49 49 49 50 50 50 50 51 52 51 51 50 51 52 50 50 52 53 56 59 59 59 59 59 58 57 55 53 51 50 48 47
20 23 23 24 23 20 18 20 23 26 25 31 43 44 45 49 48 47 47 47 48 49 50 50 51 51 51 52 53 52 50 49 50 50 52 54 59 59 58 58 57 57 57 55 54 53 51 52 51
23 22 24 23 23 20 19 21 21 23 24 26 36 44 43 47 49 48 47 48 47 48 49 50 51 50 50 51 52 52 49 50 50 50 51 55 59 59 58 58 57 57 57 57 55 53 53 52 49
23 22 21 21 22 20 27 28 22 25 26 28 33 45 45 45 49 49 48 48 49 48 49 50 50 50 50 51 51 51 53 52 50 50 52 57 58 58 58 58 57 57 56 54 53 53 52 50 47
23 22 22 19 21 23 29 26 22 27 26 29 28 35 46 45 47 49 49 49 49 50 50 50 50 50 50 50 51 51 54 56 54 52 54 56 57 58 58 58 57 56 54 53 52 50 49 47 46
23 21 24 24 31 27 28 25 28 28 27 25 21 23 40 44 46 48 49 50 50 50 50 51 50 50 51 51 53 54 54 55 56 55 56 56 58 58 57 58 56 54 52 50 49 48 47 46 43
22 23 23 26 23 23 25 26 25 28 22 19 21 28 31 37 43 47 48 49 50 50 51 51 52 52 52 52 54 54 57 56 56 58 58 59 59 59 57 55 52 50 50 49 48 46 44 42 42
22 20 20 24 27 23 21 23 30 29 27 17 24 25 32 32 33 40 45 49 49 50 51 52 52 52 52 53 53 54 56 57 58 59 59 56 57 56 54 52 50 49 48 47 46 44 42 41 41
22 21 21 20 24 28 26 23 30 28 25 23 20 25 29 33 35 37 40 44 48 48 49 52 53 53 54 54 54 57 59 59 58 58 58 56 54 53 51 50 48 48 46 45 43 42 41 40 40
Wind_Speed
4 5 2 2 2 4 17 18 18 9 6 3 3 2 5 11 8 7 10 11 7 26 20 12 21 24 23 23 24 24 25 27 27 27 27 27 29 30 29 29 27 27 27 26 25 23 22 21 20
3 4 3 5 6 14 18 23 28 5 8 11 6 4 9 5 7 11 11 20 22 16 15 28 27 26 23 21 23 25 24 24 25 26 26 27 31 31 29 28 27 26 26 25 24 21 19 18 17
4 3 2 4 8 21 19 27 20 3 13 7 6 13 7 8 8 2 10 1 20 11 9 14 28 31 29 28 27 26 27 27 26 25 25 28 30 32 29 27 27 25 25 24 23 20 17 16 15
2 2 5 11 25 29 26 28 15 5 12 20 6 10 3 7 8 13 12 6 14 14 13 24 27 33 28 24 25 26 25 27 27 28 26 27 30 31 29 27 26 25 24 22 20 17 16 16 16
1 5 10 14 23 25 25 13 18 18 10 13 10 5 6 8 15 17 16 10 13 11 10 14 28 29 29 26 26 27 24 24 25 27 26 26 29 30 29 27 26 24 23 22 18 16 15 14 14
4 2 15 20 25 26 5 14 20 17 11 5 10 8 3 5 15 18 15 5 17 20 26 21 8 25 29 28 25 26 25 23 23 25 26 27 29 29 28 27 25 23 21 19 17 14 13 14 14
18 10 18 23 26 13 2 8 13 11 9 12 6 6 6 15 7 4 13 3 20 18 17 17 17 37 38 22 26 24 25 23 21 24 27 27 27 28 28 26 24 23 21 19 16 14 13 14 15
13 12 21 23 21 14 3 5 14 6 13 5 5 1 9 4 4 1 4 6 10 11 11 8 18 18 29 26 25 16 25 24 22 25 26 26 25 26 26 24 22 21 20 18 15 13 14 14 15
14 14 21 27 19 7 2 3 2 18 20 13 4 4 4 15 11 7 9 7 8 11 11 14 21 22 24 27 27 21 19 24 21 24 25 21 18 19 18 20 20 21 17 15 15 13 12 13 14
11 13 23 21 13 12 13 17 10 11 15 2 6 10 8 12 10 10 9 9 8 12 15 17 19 23 27 21 20 25 19 18 17 15 18 15 17 16 17 19 17 18 15 14 11 11 10 9 9
21 20 23 20 20 7 10 19 12 25 6 1 8 16 12 10 8 8 6 9 7 3 12 16 19 20 23 22 21 16 15 17 16 17 15 16 14 13 13 14 13 13 12 10 8 6 4 9 10
15 22 17 20 12 14 8 11 11 13 7 6 4 12 10 12 11 7 8 11 11 13 11 16 18 20 21 18 20 18 18 14 15 18 18 17 14 13 14 13 15 13 8 9 5 7 9 11 10
18 15 13 7 9 10 19 10 10 8 19 4 4 9 10 14 11 10 9 11 11 14 13 16 20 17 17 16 17 17 16 12 17 18 17 15 14 15 13 14 15 12 8 6 8 10 7 7 7
20 22 20 9 7 5 6 3 10 3 15 10 13 18 15 16 14 12 11 12 13 15 14 18 19 18 21 18 18 14 14 14 17 14 13 15 13 14 16 15 13 12 11 9 11 10 9 7 9
19 20 19 14 7 6 5 2 4 10 13 12 5 13 20 19 16 14 14 14 14 14 17 17 21 19 22 21 18 14 14 12 12 13 12 11 15 16 15 13 12 13 14 11 10 8 7 10 7
18 16 14 21 6 7 5 16 5 12 6 1 5 7 22 22 19 17 17 16 16 17 18 17 16 19 22 19 17 17 15 8 6 7 14 13 12 10 11 11 14 12 12 13 9 11 8 9 12
13 21 25 12 10 5 7 5 16 20 17 17 21 17 18 20 20 20 19 19 19 16 20 19 18 18 19 19 17 17 15 10 14 11 14 12 9 11 11 10 10 11 11 11 11 8 8 8 9
19 14 13 9 11 12 12 17 11 18 19 21 22 17 21 22 22 22 22 20 21 19 18 20 19 18 16 13 14 11 9 10 11 12 10 14 14 13 13 10 12 12 12 11 9 10 9 5 13
26 21 15 8 8 9 18 16 22 21 13 19 20 19 23 25 24 25 24 23 22 20 19 20 20 20 20 18 18 16 18 14 13 15 14 18 16 16 14 12 12 13 16 15 14 10 12 12 6
24 10 14 5 6 5 14 18 24 24 25 22 25 26 27 20 28 26 25 24 23 24 22 21 22 22 19 18 18 13 14 11 13 15 15 18 21 19 18 19 16 13 14 16 16 13 10 8 9
16 12 18 17 6 11 12 18 17 22 17 21 26 27 24 29 29 28 27 28 27 24 23 22 23 25 23 22 18 15 14 15 18 17 16 17 20 20 18 17 15 14 17 18 18 18 18 15 8
14 18 13 13 6 9 5 15 5 20 22 21 26 26 26 29 24 31 31 30 31 28 26 24 24 26 26 26 23 23 21 20 18 18 17 17 21 21 18 14 17 18 18 19 18 15 14 12 12
15 17 3 8 14 12 17 5 5 12 16 20 28 24 22 31 31 30 31 32 30 31 30 28 28 28 29 26 24 23 20 21 20 20 22 18 17 18 18 16 16 15 12 12 14 12 12 10 8
12 13 8 8 10 20 17 9 13 16 15 13 22 31 32 26 31 32 31 30 30 28 29 30 31 31 31 28 28 26 27 22 21 22 22 19 19 19 19 18 17 14 13 13 12 12 15 13 11
12 6 9 4 7 17 7 12 16 20 20 18 22 37 27 31 30 32 32 32 29 33 32 31 33 34 32 30 30 30 24 27 28 23 22 21 18 16 17 16 14 13 13 14 15 13 11 12 12
13 15 10 6 12 9 4 6 6 12 12 14 20 25 32 33 33 35 36 36 35 32 34 34 34 34 33 33 35 30 26 21 22 26 20 19 20 19 16 16 14 14 15 15 13 12 14 16 15
9 15 20 10 3 2 6 12 9 8 10 8 10 8 31 35 34 35 35 35 36 37 37 37 36 34 31 32 25 26 29 27 26 24 22 19 12 12 17 17 14 13 14 15 15 14 13 12 9
20 9 11 7 8 7 8 13 6 5 5 4 6 7 10 22 28 31 33 35 35 38 40 39 38 38 35 29 25 26 26 29 20 13 11 8 9 18 18 17 17 15 14 15 15 14 14 16 13
14 21 10 11 9 7 7 5 7 13 8 12 12 11 8 5 7 23 29 36 37 36 35 37 36 36 33 34 32 28 23 20 12 14 9 10 11 16 18 18 17 15 15 15 14 13 15 15 13
26 24 19 16 11 9 7 9 14 16 15 9 15 15 15 13 9 3 13 27 31 34 32 34 36 34 27 28 27 16 7 5 10 16 16 15 14 13 16 16 15 15 15 15 17 17 13 15 11
Wind_Direction
303 269 257 316 281 229 255 259 252 9 93 235 192 143 123 44 24 100 161 220 169 134 137 162 173 155 143 134 129 127 125 124 123 121 121 116 115 112 110 108 108 106 104 100 99 99 98 95 91
306 260 240 286 249 270 277 258 269 217 164 159 179 71 40 84 33 134 144 213 226 250 208 192 162 163 134 131 130 129 125 123 122 123 123 119 118 115 112 111 109 107 106 104 101 97 92 82 73
284 221 209 217 244 252 261 275 281 330 141 61 29 56 18 0 352 325 40 162 253 267 209 123 177 147 145 147 142 136 131 128 127 126 124 120 121 117 115 115 112 110 108 105 103 97 86 73 63
294 274 267 251 253 259 247 268 271 24 48 37 41 52 59 353 333 345 350 107 173 194 168 158 162 143 142 143 136 133 130 131 132 130 130 125 122 120 118 116 113 110 107 104 101 95 83 74 63
269 271 251 259 261 264 271 285 90 67 82 38 39 64 11 13 5 345 358 43 114 91 67 138 143 138 139 141 136 129 128 129 131 132 131 125 123 122 120 117 114 111 111 108 102 93 83 73 67
254 235 277 282 283 292 349 19 87 78 68 80 59 101 13 19 15 341 337 15 113 98 89 51 53 140 139 138 132 124 123 124 130 131 133 126 123 122 118 116 114 112 109 104 100 91 79 71 62
235 260 272 285 289 305 12 25 90 94 36 61 114 63 286 327 30 347 333 74 112 107 104 111 78 69 45 70 100 98 101 100 118 127 130 124 120 119 117 116 115 112 109 106 101 92 82 75 65
252 259 292 294 294 298 55 59 130 136 66 132 68 356 280 81 244 65 98 84 111 107 126 135 127 117 112 103 76 110 99 93 92 102 113 110 110 111 112 113 113 113 110 109 106 100 86 78 64
271 277 278 279 294 313 341 104 26 84 101 73 70 277 185 145 166 108 121 103 94 103 116 113 114 121 123 117 127 115 115 100 95 95 94 98 104 103 104 112 115 115 113 118 113 106 97 79 60
265 249 263 274 309 323 4 11 33 91 83 106 187 259 163 181 154 135 134 130 121 122 119 120 119 128 129 137 131 132 129 111 108 104 107 98 99 109 113 111 112 113 122 113 115 103 91 58 55
258 246 270 296 307 335 1 64 60 113 85 84 264 171 164 113 99 123 111 100 88 87 123 128 128 128 132 136 128 129 126 121 128 117 107 107 109 112 119 114 116 121 119 116 115 112 72 95 87
276 253 262 288 9 16 320 103 88 91 192 2 4 156 156 148 133 131 115 110 103 94 85 125 121 130 135 133 138 142 150 142 131 129 122 125 125 127 120 134 138 126 144 147 143 129 99 87 92
306 293 282 289 317 355 22 57 122 113 93 355 328 176 178 132 129 126 116 117 96 100 102 119 118 114 118 121 130 132 137 133 122 124 126 129 139 138 147 148 141 152 175 171 152 118 121 120 105
291 305 303 324 325 308 56 77 159 240 121 173 190 199 147 139 142 139 135 135 105 104 104 109 105 122 117 121 118 126 118 123 116 117 128 138 140 163 156 159 156 178 195 179 154 150 168 151 120
314 308 294 281 272 274 61 187 83 133 165 138 357 186 147 148 153 153 152 140 127 118 120 118 115 120 117 115 110 117 134 122 127 141 134 164 167 172 165 152 185 198 189 173 163 177 169 161 145
302 295 286 281 232 292 149 263 74 130 148 329 293 224 157 157 157 154 155 151 143 131 129 124 122 122 125 126 131 131 149 155 157 144 182 187 183 162 167 189 189 195 170 162 167 172 174 180 172
273 264 272 273 207 218 205 242 128 160 165 177 236 264 160 148 154 162 165 153 156 145 141 138 141 144 140 144 147 152 172 186 198 207 190 184 187 190 180 190 198 175 165 172 171 191 192 208 198
260 257 269 223 219 215 242 237 174 154 161 183 216 223 158 160 169 169 163 159 153 156 149 149 152 147 141 142 150 159 211 240 244 238 212 196 199 186 196 197 193 180 180 184 189 200 206 225 204
259 278 320 281 233 195 243 251 179 187 195 189 212 189 173 168 167 161 162 159 150 159 160 159 154 162 156 166 173 189 207 217 226 236 218 201 195 193 189 197 199 198 196 194 189 194 219 228 222
268 293 291 320 38 208 278 281 194 185 211 203 190 174 178 170 164 165 164 165 164 167 170 166 168 168 172 172 186 192 199 225 226 228 222 194 190 195 199 203 208 199 190 192 196 196 202 224 217
261 270 268 277 236 259 272 286 167 207 221 188 179 175 173 164 161 169 170 168 167 174 177 173 172 173 180 185 186 200 209 216 209 217 221 206 196 197 197 200 212 208 195 198 205 203 199 211 227
278 260 285 296 239 248 248 252 189 193 208 199 170 173 169 167 168 168 173 168 169 176 179 180 182 184 192 193 197 203 202 204 208 208 209 207 195 195 196 196 206 192 193 203 207 198 189 186 200
249 271 301 320 314 318 291 262 231 291 225 183 169 165 173 170 173 175 172 175 177 174 181 185 188 191 197 203 206 206 207 204 202 205 208 204 198 198 196 194 191 192 192 196 192 188 187 169 171
264 289 271 235 273 274 271 251 270 234 214 187 172 166 178 184 183 183 181 174 182 181 183 186 189 197 203 206 213 222 206 204 204 207 209 203 194 198 197 196 194 196 201 203 195 175 168 173 159
228 228 276 286 261 262 334 331 276 206 198 199 175 176 187 192 190 183 183 186 183 186 189 193 195 201 207 212 215 217 209 207 207 200 198 188 188 195 201 187 192 199 199 189 174 168 159 156 149
195 202 208 222 236 273 321 268 290 221 216 203 178 194 189 192 193 186 185 186 188 190 190 194 200 203 205 210 217 217 210 213 205 200 202 192 192 191 183 184 191 193 181 166 155 151 145 145 148
238 208 228 238 119 263 258 259 303 229 214 208 187 162 179 188 191 191 189 188 190 192 194 194 201 207 210 212 213 214 218 213 206 199 190 188 180 176 171 172 171 169 158 150 147 149 144 142 142
228 229 223 229 200 233 249 247 186 10 354 133 123 109 128 176 194 195 191 192 196 197 198 196 199 203 208 212 214 216 205 211 205 157 139 141 189 193 166 155 149 150 149 149 145 147 145 141 146
205 226 225 211 210 234 263 256 205 183 213 199 158 142 137 191 164 192 199 195 197 200 197 198 202 205 204 206 212 219 212 212 139 158 161 210 178 156 145 146 151 156 154 151 144 139 141 149 158
206 208 214 226 238 231 203 250 181 175 197 205 168 170 166 161 178 194 135 201 204 204 197 196 201 203 204 210 212 188 134 107 136 114 170 147 151 131 130 139 145 147 147 144 145 151 157 154 165